QPF
0.02 0.02 0.02 0.01 0.01 0.01 0.00 0.00 0.02 0.02 0.01 0.01 0.01 0.00 0.00 0.01 0.01 0.01 0.01 0.01 0.01 0.01 0.01 0.02 0.04 0.04 0.03 0.02 0.02 0.02 0.02 0.02 0.01 0.02 0.01 0.01 0.01 0.01 0.02 0.03 0.04 0.03 0.02 0.03 0.04 0.04 0.03 0.01 0.01
0.02 0.03 0.02 0.02 0.01 0.00 0.01 0.01 0.03 0.03 0.03 0.01 0.01 0.00 0.00 0.00 0.01 0.01 0.01 0.02 0.01 0.02 0.03 0.03 0.04 0.05 0.05 0.04 0.02 0.02 0.02 0.02 0.01 0.01 0.01 0.02 0.02 0.02 0.02 0.03 0.04 0.05 0.04 0.05 0.05 0.04 0.03 0.01 0.01
0.02 0.03 0.02 0.02 0.01 0.01 0.01 0.01 0.03 0.05 0.03 0.01 0.01 0.01 0.00 0.01 0.01 0.01 0.01 0.02 0.02 0.03 0.04 0.05 0.05 0.05 0.05 0.04 0.03 0.02 0.02 0.02 0.01 0.02 0.02 0.02 0.02 0.01 0.02 0.02 0.03 0.04 0.08 0.08 0.07 0.03 0.02 0.01 0.01
0.02 0.02 0.02 0.02 0.01 0.01 0.00 0.01 0.05 0.06 0.03 0.02 0.01 0.01 0.01 0.01 0.01 0.01 0.01 0.01 0.02 0.03 0.04 0.05 0.06 0.04 0.04 0.03 0.03 0.03 0.02 0.02 0.02 0.02 0.02 0.02 0.02 0.02 0.02 0.02 0.02 0.03 0.06 0.06 0.05 0.02 0.01 0.01 0.01
0.02 0.01 0.02 0.02 0.01 0.00 0.00 0.01 0.04 0.05 0.03 0.02 0.01 0.01 0.02 0.02 0.02 0.01 0.01 0.01 0.02 0.03 0.03 0.04 0.05 0.04 0.03 0.03 0.03 0.03 0.03 0.02 0.02 0.02 0.02 0.02 0.02 0.02 0.01 0.01 0.02 0.03 0.03 0.03 0.04 0.02 0.01 0.01 0.00
0.03 0.01 0.01 0.01 0.01 0.01 0.01 0.02 0.04 0.04 0.03 0.02 0.01 0.01 0.02 0.02 0.02 0.02 0.01 0.02 0.02 0.03 0.03 0.03 0.05 0.04 0.03 0.03 0.03 0.03 0.04 0.03 0.03 0.03 0.02 0.02 0.02 0.01 0.01 0.01 0.02 0.03 0.03 0.04 0.04 0.02 0.01 0.01 0.00
0.03 0.02 0.01 0.01 0.01 0.01 0.02 0.04 0.04 0.04 0.03 0.02 0.01 0.02 0.02 0.01 0.02 0.03 0.03 0.03 0.03 0.04 0.04 0.04 0.05 0.05 0.04 0.03 0.03 0.03 0.03 0.04 0.04 0.04 0.04 0.03 0.03 0.02 0.02 0.03 0.03 0.02 0.02 0.03 0.03 0.02 0.01 0.01 0.00
0.03 0.03 0.01 0.01 0.01 0.02 0.03 0.04 0.04 0.04 0.03 0.01 0.01 0.01 0.01 0.01 0.02 0.03 0.04 0.04 0.04 0.05 0.05 0.04 0.04 0.04 0.04 0.03 0.03 0.04 0.03 0.03 0.04 0.04 0.05 0.05 0.04 0.03 0.03 0.03 0.03 0.02 0.02 0.02 0.02 0.02 0.01 0.01 0.00
0.02 0.03 0.01 0.01 0.01 0.02 0.04 0.05 0.04 0.05 0.03 0.01 0.01 0.01 0.02 0.02 0.02 0.04 0.05 0.05 0.05 0.06 0.06 0.05 0.04 0.04 0.04 0.04 0.03 0.04 0.04 0.04 0.03 0.03 0.04 0.04 0.04 0.03 0.02 0.02 0.03 0.02 0.02 0.03 0.03 0.02 0.02 0.01 0.00
0.01 0.02 0.01 0.01 0.01 0.02 0.04 0.05 0.05 0.05 0.03 0.02 0.03 0.02 0.02 0.02 0.02 0.03 0.06 0.06 0.06 0.07 0.08 0.07 0.05 0.05 0.05 0.04 0.03 0.04 0.04 0.04 0.04 0.03 0.03 0.03 0.03 0.03 0.03 0.02 0.02 0.02 0.01 0.02 0.02 0.02 0.02 0.02 0.01
0.01 0.01 0.01 0.01 0.01 0.02 0.04 0.04 0.03 0.03 0.03 0.03 0.02 0.02 0.02 0.02 0.01 0.03 0.07 0.07 0.07 0.07 0.09 0.09 0.07 0.06 0.06 0.04 0.03 0.04 0.04 0.04 0.04 0.04 0.04 0.03 0.03 0.03 0.03 0.02 0.02 0.01 0.01 0.01 0.01 0.02 0.02 0.01 0.01
0.01 0.00 0.01 0.01 0.01 0.02 0.04 0.03 0.02 0.02 0.03 0.03 0.02 0.02 0.02 0.01 0.01 0.02 0.05 0.07 0.07 0.07 0.08 0.08 0.09 0.08 0.08 0.06 0.03 0.03 0.03 0.04 0.04 0.04 0.04 0.04 0.03 0.03 0.03 0.03 0.02 0.01 0.01 0.01 0.01 0.01 0.02 0.01 0.01
0.01 0.01 0.00 0.01 0.01 0.02 0.03 0.03 0.01 0.01 0.02 0.03 0.03 0.02 0.01 0.01 0.01 0.02 0.04 0.05 0.07 0.07 0.08 0.08 0.09 0.09 0.10 0.07 0.05 0.03 0.03 0.03 0.04 0.05 0.05 0.04 0.03 0.02 0.03 0.03 0.03 0.02 0.01 0.01 0.01 0.02 0.02 0.02 0.02
0.01 0.01 0.01 0.01 0.02 0.02 0.03 0.02 0.01 0.01 0.02 0.03 0.05 0.05 0.03 0.02 0.01 0.01 0.03 0.04 0.05 0.06 0.07 0.08 0.10 0.09 0.10 0.08 0.05 0.03 0.02 0.02 0.03 0.04 0.05 0.06 0.05 0.03 0.03 0.03 0.04 0.03 0.02 0.01 0.01 0.01 0.02 0.02 0.02
0.01 0.02 0.02 0.02 0.02 0.02 0.02 0.02 0.01 0.01 0.01 0.04 0.05 0.05 0.03 0.02 0.02 0.02 0.03 0.03 0.04 0.05 0.06 0.06 0.11 0.11 0.10 0.08 0.06 0.03 0.02 0.02 0.02 0.02 0.04 0.06 0.06 0.05 0.04 0.03 0.04 0.03 0.01 0.01 0.01 0.01 0.02 0.02 0.02
0.03 0.03 0.02 0.03 0.02 0.02 0.02 0.02 0.01 0.01 0.01 0.04 0.07 0.05 0.03 0.02 0.02 0.01 0.02 0.03 0.04 0.05 0.05 0.04 0.10 0.14 0.13 0.10 0.08 0.06 0.04 0.03 0.03 0.02 0.03 0.05 0.07 0.07 0.06 0.05 0.04 0.03 0.02 0.02 0.02 0.03 0.02 0.02 0.02
0.04 0.04 0.02 0.02 0.01 0.01 0.02 0.02 0.01 0.01 0.01 0.03 0.08 0.07 0.03 0.02 0.02 0.02 0.02 0.03 0.04 0.04 0.04 0.04 0.07 0.11 0.14 0.12 0.09 0.09 0.07 0.05 0.05 0.04 0.03 0.03 0.06 0.08 0.08 0.05 0.04 0.04 0.03 0.03 0.02 0.04 0.04 0.03 0.02
0.03 0.03 0.02 0.01 0.01 0.01 0.01 0.01 0.01 0.01 0.01 0.03 0.07 0.08 0.05 0.03 0.03 0.02 0.03 0.03 0.04 0.05 0.05 0.04 0.06 0.10 0.15 0.17 0.11 0.11 0.10 0.07 0.06 0.06 0.06 0.05 0.05 0.09 0.10 0.09 0.06 0.04 0.03 0.03 0.03 0.04 0.05 0.03 0.02
0.03 0.02 0.01 0.01 0.01 0.01 0.01 0.01 0.01 0.01 0.00 0.02 0.06 0.07 0.06 0.04 0.03 0.03 0.03 0.04 0.06 0.07 0.07 0.06 0.07 0.10 0.15 0.19 0.14 0.10 0.10 0.09 0.08 0.08 0.08 0.08 0.08 0.10 0.12 0.12 0.10 0.07 0.05 0.04 0.04 0.06 0.06 0.05 0.04
0.02 0.01 0.01 0.01 0.01 0.01 0.01 0.01 0.01 0.01 0.01 0.01 0.05 0.05 0.05 0.04 0.03 0.03 0.03 0.05 0.06 0.08 0.06 0.05 0.05 0.06 0.11 0.16 0.17 0.11 0.13 0.12 0.10 0.10 0.09 0.08 0.08 0.08 0.10 0.13 0.12 0.11 0.08 0.06 0.06 0.09 0.09 0.08 0.07
0.01 0.01 0.01 0.01 0.01 0.01 0.01 0.01 0.01 0.01 0.01 0.01 0.02 0.04 0.04 0.03 0.02 0.02 0.02 0.03 0.05 0.07 0.07 0.04 0.04 0.05 0.07 0.13 0.19 0.14 0.12 0.12 0.11 0.10 0.09 0.07 0.05 0.05 0.05 0.06 0.09 0.10 0.10 0.09 0.07 0.09 0.09 0.07 0.05
0.00 0.00 0.00 0.01 0.01 0.01 0.01 0.01 0.01 0.01 0.01 0.01 0.01 0.02 0.03 0.03 0.02 0.01 0.01 0.01 0.03 0.06 0.07 0.05 0.05 0.05 0.05 0.09 0.17 0.17 0.13 0.10 0.09 0.09 0.08 0.06 0.05 0.04 0.04 0.04 0.06 0.08 0.08 0.08 0.07 0.10 0.10 0.07 0.04
0.00 0.00 0.00 0.01 0.01 0.01 0.01 0.01 0.01 0.01 0.02 0.01 0.00 0.01 0.02 0.02 0.01 0.01 0.01 0.01 0.01 0.03 0.05 0.05 0.04 0.05 0.05 0.07 0.12 0.16 0.15 0.11 0.08 0.08 0.07 0.06 0.04 0.04 0.04 0.04 0.04 0.05 0.07 0.08 0.08 0.10 0.12 0.10 0.06
0.00 0.00 0.00 0.01 0.03 0.02 0.01 0.01 0.01 0.01 0.03 0.02 0.01 0.01 0.01 0.01 0.01 0.01 0.01 0.00 0.01 0.02 0.03 0.04 0.03 0.04 0.04 0.05 0.09 0.12 0.14 0.13 0.10 0.08 0.07 0.06 0.04 0.03 0.03 0.03 0.04 0.04 0.05 0.06 0.08 0.09 0.11 0.11 0.08
0.01 0.01 0.02 0.03 0.03 0.02 0.02 0.01 0.01 0.01 0.02 0.02 0.02 0.02 0.01 0.01 0.01 0.01 0.01 0.00 0.00 0.01 0.02 0.03 0.03 0.03 0.04 0.05 0.07 0.09 0.11 0.12 0.12 0.11 0.08 0.07 0.05 0.03 0.02 0.02 0.02 0.03 0.04 0.05 0.07 0.08 0.09 0.10 0.10
0.01 0.01 0.02 0.02 0.02 0.02 0.01 0.01 0.01 0.02 0.02 0.01 0.01 0.01 0.02 0.02 0.01 0.00 0.01 0.01 0.00 0.01 0.01 0.02 0.02 0.02 0.03 0.04 0.08 0.08 0.08 0.09 0.08 0.09 0.08 0.07 0.06 0.04 0.03 0.02 0.02 0.02 0.03 0.04 0.05 0.07 0.08 0.09 0.09
0.01 0.00 0.01 0.03 0.02 0.02 0.01 0.01 0.01 0.01 0.01 0.01 0.02 0.02 0.03 0.03 0.01 0.01 0.01 0.01 0.01 0.01 0.02 0.03 0.03 0.03 0.03 0.03 0.07 0.08 0.06 0.07 0.06 0.06 0.06 0.05 0.05 0.04 0.03 0.02 0.02 0.02 0.02 0.03 0.03 0.05 0.05 0.07 0.08
0.00 0.01 0.02 0.02 0.03 0.02 0.01 0.01 0.02 0.02 0.01 0.02 0.02 0.04 0.05 0.05 0.03 0.02 0.01 0.01 0.01 0.02 0.03 0.04 0.04 0.04 0.04 0.05 0.07 0.08 0.05 0.05 0.05 0.05 0.05 0.04 0.03 0.03 0.02 0.02 0.02 0.02 0.02 0.02 0.03 0.04 0.04 0.05 0.07
0.01 0.01 0.02 0.02 0.02 0.02 0.01 0.01 0.02 0.02 0.02 0.02 0.03 0.05 0.06 0.07 0.05 0.03 0.02 0.01 0.01 0.02 0.04 0.04 0.04 0.04 0.04 0.05 0.07 0.08 0.07 0.05 0.05 0.05 0.05 0.04 0.03 0.02 0.02 0.01 0.01 0.01 0.01 0.02 0.03 0.03 0.04 0.06 0.06
0.00 0.01 0.01 0.03 0.02 0.02 0.02 0.01 0.01 0.02 0.02 0.03 0.03 0.06 0.09 0.07 0.06 0.05 0.03 0.02 0.01 0.02 0.03 0.04 0.04 0.04 0.04 0.04 0.06 0.08 0.08 0.06 0.05 0.05 0.06 0.04 0.03 0.02 0.01 0.01 0.01 0.01 0.01 0.01 0.02 0.03 0.03 0.05 0.06
MSLP
1011.85 1012.40 1013.11 1013.85 1014.50 1014.97 1015.18 1015.12 1014.82 1014.38 1013.92 1013.57 1013.42 1013.53 1013.88 1014.42 1015.05 1015.64 1016.11 1016.39 1016.45 1016.33 1016.08 1015.77 1015.48 1015.25 1015.07 1014.95 1014.83 1014.69 1014.48 1014.18 1013.82 1013.42 1013.01 1012.62 1012.29 1012.02 1011.81 1011.66 1011.55 1011.48 1011.45 1011.46 1011.52 1011.65 1011.84 1012.09 1012.38
1012.21 1012.87 1013.60 1014.30 1014.85 1015.16 1015.19 1014.96 1014.53 1014.01 1013.52 1013.20 1013.11 1013.28 1013.70 1014.28 1014.91 1015.50 1015.94 1016.19 1016.24 1016.13 1015.90 1015.64 1015.40 1015.20 1015.07 1014.97 1014.87 1014.74 1014.54 1014.28 1013.96 1013.59 1013.22 1012.86 1012.54 1012.26 1012.01 1011.80 1011.61 1011.46 1011.34 1011.27 1011.28 1011.38 1011.56 1011.83 1012.16
1012.67 1013.36 1014.07 1014.67 1015.06 1015.20 1015.05 1014.67 1014.14 1013.59 1013.15 1012.90 1012.91 1013.18 1013.67 1014.29 1014.93 1015.49 1015.89 1016.11 1016.14 1016.02 1015.82 1015.60 1015.39 1015.24 1015.13 1015.04 1014.94 1014.81 1014.62 1014.37 1014.07 1013.74 1013.40 1013.07 1012.76 1012.46 1012.18 1011.90 1011.64 1011.39 1011.19 1011.06 1011.01 1011.08 1011.25 1011.54 1011.91
1013.14 1013.82 1014.44 1014.90 1015.11 1015.05 1014.74 1014.24 1013.67 1013.14 1012.78 1012.66 1012.80 1013.18 1013.75 1014.40 1015.03 1015.55 1015.91 1016.09 1016.10 1015.99 1015.82 1015.64 1015.48 1015.35 1015.26 1015.17 1015.05 1014.90 1014.70 1014.45 1014.16 1013.85 1013.54 1013.23 1012.93 1012.62 1012.31 1011.99 1011.66 1011.35 1011.08 1010.88 1010.78 1010.81 1010.97 1011.26 1011.66
1013.55 1014.16 1014.65 1014.93 1014.94 1014.70 1014.25 1013.68 1013.11 1012.66 1012.42 1012.44 1012.72 1013.21 1013.84 1014.51 1015.12 1015.60 1015.91 1016.06 1016.07 1015.98 1015.86 1015.73 1015.63 1015.54 1015.45 1015.35 1015.21 1015.02 1014.79 1014.52 1014.22 1013.93 1013.64 1013.36 1013.07 1012.78 1012.45 1012.10 1011.74 1011.37 1011.05 1010.79 1010.64 1010.63 1010.76 1011.03 1011.44
1013.80 1014.30 1014.63 1014.72 1014.55 1014.16 1013.61 1013.02 1012.49 1012.15 1012.05 1012.22 1012.63 1013.21 1013.89 1014.55 1015.13 1015.56 1015.83 1015.97 1015.99 1015.96 1015.91 1015.86 1015.81 1015.76 1015.69 1015.58 1015.40 1015.17 1014.90 1014.60 1014.30 1014.01 1013.74 1013.48 1013.22 1012.94 1012.63 1012.27 1011.88 1011.49 1011.12 1010.82 1010.61 1010.54 1010.62 1010.85 1011.22
1013.85 1014.21 1014.37 1014.28 1013.96 1013.46 1012.86 1012.29 1011.85 1011.63 1011.68 1011.99 1012.50 1013.15 1013.84 1014.48 1015.01 1015.39 1015.64 1015.78 1015.85 1015.89 1015.92 1015.97 1016.00 1016.00 1015.95 1015.82 1015.62 1015.35 1015.04 1014.72 1014.40 1014.12 1013.87 1013.64 1013.41 1013.15 1012.85 1012.50 1012.10 1011.69 1011.29 1010.94 1010.68 1010.54 1010.54 1010.69 1010.99
1013.71 1013.92 1013.91 1013.67 1013.24 1012.67 1012.08 1011.57 1011.24 1011.16 1011.34 1011.76 1012.35 1013.02 1013.69 1014.28 1014.76 1015.10 1015.34 1015.50 1015.63 1015.76 1015.90 1016.04 1016.16 1016.22 1016.19 1016.06 1015.84 1015.55 1015.21 1014.87 1014.56 1014.29 1014.06 1013.85 1013.64 1013.40 1013.11 1012.76 1012.37 1011.94 1011.51 1011.11 1010.79 1010.57 1010.47 1010.52 1010.72
1013.43 1013.49 1013.34 1012.98 1012.48 1011.90 1011.35 1010.94 1010.73 1010.78 1011.07 1011.56 1012.18 1012.83 1013.46 1013.99 1014.41 1014.72 1014.95 1015.16 1015.36 1015.59 1015.83 1016.07 1016.26 1016.38 1016.38 1016.26 1016.04 1015.74 1015.40 1015.07 1014.77 1014.51 1014.30 1014.10 1013.90 1013.66 1013.37 1013.02 1012.61 1012.16 1011.70 1011.27 1010.89 1010.58 1010.39 1010.33 1010.42
1013.10 1013.02 1012.76 1012.33 1011.79 1011.24 1010.77 1010.46 1010.37 1010.52 1010.89 1011.41 1012.01 1012.62 1013.18 1013.64 1014.00 1014.29 1014.54 1014.79 1015.07 1015.39 1015.72 1016.04 1016.30 1016.46 1016.49 1016.39 1016.18 1015.90 1015.58 1015.27 1014.99 1014.76 1014.56 1014.36 1014.15 1013.90 1013.58 1013.20 1012.77 1012.30 1011.82 1011.36 1010.93 1010.56 1010.29 1010.12 1010.10
1012.82 1012.63 1012.27 1011.79 1011.26 1010.77 1010.38 1010.17 1010.18 1010.40 1010.79 1011.30 1011.86 1012.39 1012.86 1013.26 1013.58 1013.86 1014.13 1014.44 1014.79 1015.18 1015.58 1015.96 1016.26 1016.44 1016.49 1016.42 1016.24 1015.99 1015.72 1015.45 1015.21 1014.99 1014.79 1014.58 1014.34 1014.04 1013.68 1013.26 1012.80 1012.31 1011.82 1011.34 1010.89 1010.49 1010.16 1009.92 1009.80
1012.66 1012.38 1011.96 1011.46 1010.96 1010.52 1010.21 1010.08 1010.14 1010.38 1010.75 1011.21 1011.68 1012.12 1012.51 1012.84 1013.14 1013.42 1013.74 1014.10 1014.51 1014.96 1015.41 1015.81 1016.12 1016.32 1016.39 1016.34 1016.19 1016.00 1015.78 1015.57 1015.36 1015.17 1014.96 1014.71 1014.41 1014.05 1013.62 1013.16 1012.66 1012.17 1011.68 1011.22 1010.78 1010.38 1010.03 1009.75 1009.56
1012.68 1012.32 1011.86 1011.36 1010.88 1010.49 1010.24 1010.14 1010.21 1010.41 1010.72 1011.07 1011.43 1011.77 1012.08 1012.36 1012.65 1012.97 1013.34 1013.76 1014.23 1014.72 1015.19 1015.60 1015.90 1016.10 1016.17 1016.14 1016.05 1015.91 1015.76 1015.60 1015.43 1015.24 1015.01 1014.71 1014.34 1013.90 1013.41 1012.89 1012.38 1011.89 1011.43 1011.01 1010.63 1010.27 1009.94 1009.65 1009.42
1012.86 1012.44 1011.95 1011.46 1011.00 1010.64 1010.40 1010.29 1010.31 1010.42 1010.60 1010.81 1011.04 1011.27 1011.51 1011.77 1012.08 1012.45 1012.89 1013.38 1013.91 1014.43 1014.91 1015.31 1015.60 1015.78 1015.86 1015.87 1015.82 1015.74 1015.66 1015.55 1015.41 1015.21 1014.94 1014.58 1014.13 1013.62 1013.06 1012.50 1011.98 1011.52 1011.11 1010.77 1010.45 1010.16 1009.87 1009.59 1009.35
1013.13 1012.68 1012.18 1011.69 1011.25 1010.89 1010.63 1010.46 1010.37 1010.34 1010.35 1010.39 1010.47 1010.59 1010.76 1011.02 1011.37 1011.82 1012.34 1012.92 1013.51 1014.07 1014.56 1014.95 1015.23 1015.41 1015.51 1015.54 1015.55 1015.53 1015.50 1015.43 1015.31 1015.09 1014.77 1014.34 1013.82 1013.23 1012.63 1012.05 1011.54 1011.11 1010.77 1010.50 1010.27 1010.04 1009.79 1009.53 1009.28
1013.42 1012.95 1012.46 1011.98 1011.55 1011.18 1010.86 1010.58 1010.33 1010.11 1009.92 1009.77 1009.69 1009.70 1009.83 1010.10 1010.51 1011.05 1011.67 1012.35 1013.01 1013.62 1014.13 1014.53 1014.82 1015.01 1015.14 1015.22 1015.28 1015.32 1015.33 1015.29 1015.16 1014.92 1014.55 1014.05 1013.46 1012.82 1012.18 1011.59 1011.10 1010.72 1010.44 1010.23 1010.05 1009.87 1009.64 1009.38 1009.11
1013.62 1013.17 1012.71 1012.26 1011.84 1011.43 1011.03 1010.61 1010.18 1009.75 1009.33 1008.98 1008.73 1008.64 1008.73 1009.02 1009.51 1010.15 1010.89 1011.67 1012.42 1013.09 1013.64 1014.07 1014.39 1014.62 1014.78 1014.92 1015.04 1015.14 1015.19 1015.16 1015.02 1014.74 1014.31 1013.75 1013.11 1012.42 1011.77 1011.19 1010.72 1010.38 1010.13 1009.95 1009.78 1009.58 1009.33 1009.03 1008.71
1013.68 1013.27 1012.87 1012.47 1012.06 1011.63 1011.13 1010.57 1009.94 1009.27 1008.63 1008.07 1007.66 1007.47 1007.54 1007.86 1008.42 1009.17 1010.03 1010.91 1011.76 1012.50 1013.12 1013.60 1013.96 1014.25 1014.48 1014.68 1014.86 1015.01 1015.09 1015.07 1014.91 1014.58 1014.10 1013.50 1012.81 1012.10 1011.43 1010.86 1010.41 1010.07 1009.82 1009.61 1009.39 1009.12 1008.78 1008.38 1007.98
1013.56 1013.24 1012.92 1012.59 1012.22 1011.75 1011.17 1010.46 1009.63 1008.74 1007.88 1007.13 1006.58 1006.30 1006.35 1006.70 1007.35 1008.20 1009.16 1010.15 1011.09 1011.90 1012.58 1013.13 1013.56 1013.91 1014.22 1014.50 1014.74 1014.94 1015.04 1015.02 1014.83 1014.47 1013.95 1013.30 1012.58 1011.86 1011.20 1010.62 1010.16 1009.80 1009.49 1009.19 1008.85 1008.43 1007.94 1007.41 1006.89
1013.30 1013.08 1012.88 1012.64 1012.31 1011.83 1011.17 1010.32 1009.31 1008.22 1007.16 1006.24 1005.57 1005.24 1005.27 1005.67 1006.38 1007.32 1008.38 1009.45 1010.46 1011.35 1012.09 1012.69 1013.19 1013.61 1013.99 1014.34 1014.65 1014.89 1015.02 1014.99 1014.78 1014.39 1013.83 1013.16 1012.43 1011.71 1011.04 1010.46 1009.96 1009.53 1009.11 1008.66 1008.14 1007.53 1006.84 1006.13 1005.47
1012.96 1012.87 1012.79 1012.65 1012.37 1011.89 1011.16 1010.19 1009.03 1007.77 1006.55 1005.50 1004.74 1004.36 1004.40 1004.84 1005.61 1006.62 1007.75 1008.89 1009.94 1010.87 1011.66 1012.30 1012.85 1013.34 1013.79 1014.20 1014.56 1014.83 1014.98 1014.95 1014.73 1014.32 1013.75 1013.07 1012.34 1011.61 1010.93 1010.33 1009.77 1009.24 1008.68 1008.05 1007.31 1006.47 1005.55 1004.65 1003.84
1012.65 1012.67 1012.71 1012.66 1012.44 1011.95 1011.17 1010.10 1008.81 1007.42 1006.08 1004.94 1004.13 1003.74 1003.80 1004.28 1005.11 1006.17 1007.34 1008.50 1009.57 1010.51 1011.31 1011.98 1012.55 1013.08 1013.57 1014.03 1014.43 1014.74 1014.90 1014.88 1014.66 1014.25 1013.68 1013.00 1012.28 1011.55 1010.86 1010.21 1009.58 1008.93 1008.21 1007.38 1006.41 1005.34 1004.21 1003.12 1002.19
1012.45 1012.58 1012.71 1012.74 1012.54 1012.05 1011.21 1010.06 1008.67 1007.19 1005.77 1004.58 1003.76 1003.38 1003.47 1003.99 1004.86 1005.95 1007.14 1008.30 1009.35 1010.27 1011.04 1011.70 1012.28 1012.82 1013.33 1013.82 1014.25 1014.58 1014.76 1014.76 1014.55 1014.15 1013.60 1012.94 1012.22 1011.50 1010.79 1010.10 1009.39 1008.62 1007.74 1006.72 1005.56 1004.29 1002.98 1001.75 1000.72
1012.44 1012.64 1012.83 1012.89 1012.70 1012.17 1011.28 1010.06 1008.60 1007.06 1005.61 1004.41 1003.60 1003.25 1003.39 1003.95 1004.85 1005.95 1007.12 1008.25 1009.26 1010.13 1010.85 1011.47 1012.02 1012.55 1013.07 1013.57 1014.01 1014.36 1014.57 1014.58 1014.40 1014.03 1013.50 1012.87 1012.17 1011.46 1010.74 1010.00 1009.21 1008.34 1007.32 1006.15 1004.84 1003.42 1001.99 1000.67 999.59
1012.65 1012.87 1013.07 1013.13 1012.90 1012.33 1011.37 1010.09 1008.58 1007.00 1005.54 1004.36 1003.59 1003.30 1003.49 1004.09 1005.00 1006.09 1007.23 1008.30 1009.25 1010.05 1010.71 1011.27 1011.78 1012.29 1012.79 1013.29 1013.75 1014.11 1014.34 1014.38 1014.23 1013.90 1013.41 1012.81 1012.14 1011.43 1010.69 1009.92 1009.07 1008.11 1007.00 1005.74 1004.33 1002.84 1001.36 1000.01 998.93
1013.05 1013.25 1013.42 1013.42 1013.13 1012.48 1011.45 1010.10 1008.55 1006.97 1005.53 1004.39 1003.68 1003.45 1003.68 1004.31 1005.22 1006.29 1007.38 1008.39 1009.26 1009.98 1010.58 1011.09 1011.56 1012.03 1012.53 1013.02 1013.48 1013.86 1014.11 1014.19 1014.08 1013.78 1013.33 1012.77 1012.12 1011.43 1010.68 1009.88 1008.99 1007.98 1006.82 1005.51 1004.08 1002.58 1001.12 999.80 998.76
1013.57 1013.72 1013.82 1013.73 1013.34 1012.58 1011.47 1010.07 1008.50 1006.92 1005.52 1004.44 1003.79 1003.60 1003.87 1004.51 1005.42 1006.44 1007.48 1008.42 1009.22 1009.89 1010.43 1010.90 1011.34 1011.80 1012.29 1012.78 1013.25 1013.65 1013.92 1014.03 1013.96 1013.70 1013.30 1012.77 1012.15 1011.46 1010.72 1009.90 1008.99 1007.96 1006.79 1005.49 1004.09 1002.64 1001.25 1000.01 999.04
1014.11 1014.18 1014.17 1013.96 1013.45 1012.59 1011.40 1009.95 1008.36 1006.81 1005.46 1004.44 1003.84 1003.70 1003.99 1004.63 1005.50 1006.47 1007.45 1008.33 1009.08 1009.70 1010.22 1010.68 1011.13 1011.59 1012.09 1012.60 1013.08 1013.50 1013.79 1013.93 1013.89 1013.67 1013.31 1012.81 1012.22 1011.55 1010.81 1009.99 1009.08 1008.06 1006.92 1005.66 1004.33 1002.98 1001.69 1000.56 999.68
1014.56 1014.52 1014.39 1014.04 1013.40 1012.43 1011.17 1009.68 1008.11 1006.60 1005.30 1004.34 1003.79 1003.68 1003.97 1004.58 1005.40 1006.32 1007.23 1008.06 1008.79 1009.40 1009.93 1010.42 1010.90 1011.40 1011.93 1012.47 1012.98 1013.41 1013.73 1013.89 1013.87 1013.69 1013.36 1012.90 1012.33 1011.69 1010.96 1010.16 1009.27 1008.27 1007.18 1006.00 1004.76 1003.52 1002.35 1001.34 1000.54
1014.80 1014.65 1014.38 1013.90 1013.14 1012.07 1010.75 1009.26 1007.71 1006.26 1005.03 1004.13 1003.62 1003.52 1003.79 1004.34 1005.10 1005.95 1006.81 1007.61 1008.33 1008.97 1009.55 1010.10 1010.65 1011.22 1011.81 1012.39 1012.92 1013.37 1013.70 1013.88 1013.88 1013.73 1013.43 1013.00 1012.47 1011.86 1011.17 1010.39 1009.54 1008.59 1007.56 1006.46 1005.32 1004.20 1003.15 1002.24 1001.52
Thickness
5690 5693 5693 5687 5672 5659 5663 5678 5692 5699 5703 5712 5716 5715 5711 5708 5707 5704 5718 5725 5726 5727 5727 5728 5728 5728 5728 5728 5729 5728 5727 5727 5726 5726 5725 5724 5724 5723 5722 5721 5721 5720 5719 5718 5718 5717 5716 5715 5714
5684 5686 5681 5670 5656 5648 5659 5677 5687 5697 5704 5710 5711 5709 5705 5703 5709 5710 5714 5719 5722 5723 5723 5724 5724 5724 5724 5724 5724 5725 5724 5723 5723 5722 5722 5721 5720 5719 5718 5718 5717 5716 5716 5715 5714 5713 5712 5711 5710
5678 5678 5665 5654 5647 5649 5662 5678 5685 5694 5701 5703 5700 5700 5698 5698 5703 5705 5711 5715 5716 5717 5718 5719 5719 5719 5720 5720 5720 5720 5720 5720 5719 5719 5718 5717 5717 5715 5714 5714 5713 5712 5712 5711 5710 5709 5708 5708 5707
5667 5660 5652 5643 5644 5654 5665 5675 5680 5685 5690 5693 5692 5687 5691 5697 5699 5702 5706 5709 5709 5711 5712 5713 5714 5714 5715 5715 5715 5716 5716 5716 5715 5715 5714 5713 5713 5711 5710 5710 5709 5708 5708 5707 5706 5705 5705 5704 5703
5656 5646 5638 5633 5642 5653 5662 5670 5674 5674 5677 5682 5684 5678 5681 5690 5695 5697 5699 5702 5703 5704 5706 5706 5708 5709 5709 5710 5710 5710 5711 5711 5711 5711 5710 5709 5708 5707 5706 5706 5705 5704 5703 5703 5702 5701 5700 5699 5698
5639 5633 5624 5624 5636 5648 5655 5663 5666 5667 5669 5673 5674 5672 5674 5683 5686 5688 5691 5694 5696 5698 5699 5700 5701 5703 5703 5704 5705 5705 5706 5706 5706 5706 5705 5705 5704 5703 5702 5701 5701 5700 5699 5698 5697 5696 5696 5695 5694
5629 5622 5620 5624 5630 5638 5649 5655 5656 5659 5661 5665 5669 5665 5667 5674 5678 5681 5683 5686 5688 5690 5692 5694 5695 5696 5696 5697 5699 5699 5700 5700 5701 5701 5700 5699 5699 5698 5697 5696 5696 5695 5694 5693 5693 5692 5691 5690 5689
5625 5616 5617 5618 5623 5631 5642 5648 5652 5653 5656 5663 5664 5658 5659 5666 5671 5673 5676 5678 5680 5682 5685 5686 5688 5689 5690 5690 5692 5693 5693 5694 5695 5695 5695 5694 5693 5693 5692 5691 5691 5690 5689 5688 5688 5687 5686 5685 5684
5622 5606 5605 5613 5619 5627 5634 5638 5643 5648 5651 5653 5655 5657 5661 5663 5665 5665 5666 5668 5671 5674 5677 5679 5680 5682 5683 5684 5684 5686 5686 5687 5687 5688 5688 5688 5687 5687 5686 5685 5685 5684 5684 5683 5682 5681 5680 5679 5678
5608 5596 5605 5614 5618 5621 5627 5629 5633 5637 5639 5642 5646 5650 5653 5655 5656 5656 5657 5658 5661 5665 5669 5672 5673 5674 5676 5677 5678 5678 5679 5679 5680 5680 5681 5681 5681 5680 5679 5679 5679 5678 5677 5676 5676 5675 5674 5673 5672
5603 5598 5605 5609 5614 5617 5620 5623 5626 5628 5629 5635 5638 5641 5643 5646 5647 5649 5650 5652 5655 5657 5661 5664 5666 5667 5669 5670 5671 5671 5671 5671 5672 5672 5673 5674 5674 5674 5673 5673 5672 5672 5671 5670 5669 5668 5667 5667 5666
5597 5599 5602 5604 5608 5610 5613 5616 5617 5621 5627 5633 5634 5637 5636 5637 5639 5642 5643 5645 5648 5651 5653 5657 5659 5660 5661 5662 5664 5664 5664 5664 5665 5665 5665 5666 5666 5666 5666 5665 5665 5665 5664 5663 5662 5661 5660 5659 5659
5590 5593 5596 5598 5601 5603 5606 5607 5609 5615 5622 5626 5628 5629 5629 5630 5632 5636 5639 5641 5643 5645 5646 5650 5652 5652 5653 5654 5655 5656 5656 5657 5657 5657 5657 5658 5659 5659 5659 5658 5657 5657 5657 5656 5655 5654 5653 5652 5652
5586 5587 5588 5591 5594 5598 5599 5601 5603 5612 5615 5618 5620 5621 5621 5623 5625 5628 5631 5633 5635 5637 5639 5642 5643 5644 5646 5646 5647 5648 5648 5649 5649 5650 5650 5651 5651 5651 5651 5651 5650 5650 5649 5649 5648 5647 5646 5644 5644
5581 5578 5580 5585 5588 5590 5592 5594 5598 5605 5607 5610 5612 5614 5615 5616 5618 5621 5625 5627 5629 5630 5632 5635 5637 5637 5638 5639 5638 5640 5640 5641 5642 5642 5642 5643 5644 5644 5644 5643 5642 5642 5642 5641 5640 5639 5638 5637 5636
5572 5567 5566 5578 5582 5584 5582 5585 5596 5599 5600 5601 5604 5606 5608 5610 5612 5615 5618 5620 5622 5623 5624 5627 5629 5629 5630 5631 5630 5631 5632 5633 5633 5634 5634 5636 5637 5637 5636 5636 5635 5635 5634 5633 5632 5632 5630 5629 5628
5556 5552 5558 5568 5576 5577 5575 5577 5588 5590 5592 5593 5595 5598 5601 5603 5605 5607 5610 5612 5613 5615 5616 5618 5620 5621 5622 5622 5622 5622 5623 5624 5625 5626 5626 5627 5628 5629 5629 5628 5627 5627 5626 5625 5624 5623 5622 5620 5620
5548 5548 5553 5558 5567 5568 5566 5571 5580 5581 5583 5585 5587 5588 5591 5594 5597 5599 5601 5603 5604 5606 5608 5609 5611 5612 5612 5613 5613 5613 5614 5615 5616 5617 5618 5619 5619 5620 5620 5620 5619 5619 5617 5617 5616 5614 5613 5612 5611
5549 5547 5546 5554 5561 5560 5559 5566 5574 5576 5575 5576 5577 5579 5581 5584 5588 5589 5591 5593 5595 5596 5597 5599 5600 5601 5602 5603 5603 5603 5605 5606 5607 5608 5609 5609 5610 5610 5611 5611 5611 5610 5609 5607 5606 5605 5603 5602 5600
5542 5539 5539 5546 5554 5555 5553 5558 5567 5570 5570 5571 5571 5573 5574 5575 5577 5580 5581 5582 5584 5585 5587 5589 5590 5592 5594 5594 5595 5595 5596 5597 5598 5599 5600 5600 5601 5601 5602 5602 5602 5601 5599 5598 5596 5595 5592 5591 5590
5536 5533 5534 5538 5542 5545 5542 5549 5559 5564 5564 5565 5565 5566 5567 5568 5569 5570 5570 5572 5573 5574 5576 5579 5581 5582 5584 5585 5585 5586 5585 5586 5587 5588 5590 5592 5592 5592 5592 5592 5592 5591 5590 5588 5586 5585 5583 5580 5579
5529 5535 5535 5535 5527 5523 5530 5527 5546 5550 5551 5554 5554 5554 5555 5557 5559 5560 5560 5562 5564 5566 5567 5569 5571 5572 5573 5575 5575 5576 5576 5577 5579 5580 5581 5582 5582 5582 5582 5582 5581 5580 5579 5578 5577 5576 5574 5572 5569
5526 5530 5528 5527 5520 5513 5517 5514 5533 5538 5541 5545 5544 5544 5545 5547 5549 5550 5552 5554 5556 5557 5558 5559 5562 5563 5564 5565 5566 5566 5566 5567 5569 5569 5570 5571 5572 5573 5573 5572 5571 5570 5569 5568 5568 5566 5564 5563 5562
5524 5520 5516 5507 5501 5504 5513 5507 5520 5525 5533 5537 5538 5536 5536 5537 5538 5539 5540 5542 5544 5546 5547 5549 5551 5553 5554 5554 5555 5557 5557 5557 5558 5559 5560 5561 5561 5562 5562 5561 5560 5560 5559 5559 5558 5556 5554 5553 5553
5514 5501 5492 5491 5483 5495 5508 5508 5516 5526 5527 5527 5527 5526 5524 5524 5525 5527 5528 5530 5531 5533 5534 5537 5539 5541 5542 5543 5544 5546 5547 5547 5548 5549 5550 5550 5551 5551 5552 5551 5551 5550 5550 5549 5548 5547 5546 5544 5543
5504 5498 5491 5490 5483 5490 5501 5503 5516 5521 5520 5519 5517 5516 5516 5514 5514 5516 5517 5518 5520 5522 5523 5525 5527 5529 5530 5532 5533 5534 5535 5536 5538 5539 5539 5540 5540 5542 5542 5541 5540 5540 5540 5539 5539 5538 5537 5535 5534
5499 5488 5490 5479 5473 5476 5487 5495 5508 5514 5513 5511 5509 5507 5505 5504 5504 5505 5506 5507 5509 5511 5512 5513 5515 5517 5518 5520 5521 5521 5523 5525 5527 5527 5528 5528 5529 5530 5531 5530 5530 5530 5529 5529 5529 5528 5528 5526 5525
5495 5488 5477 5474 5475 5479 5485 5488 5497 5502 5502 5501 5498 5496 5495 5495 5494 5494 5495 5497 5499 5500 5501 5503 5504 5505 5506 5507 5508 5511 5513 5515 5516 5517 5518 5518 5518 5518 5519 5519 5519 5519 5519 5519 5519 5519 5518 5517 5516
5484 5480 5473 5465 5464 5471 5472 5489 5498 5494 5494 5490 5488 5487 5485 5484 5483 5484 5485 5487 5488 5489 5490 5492 5493 5494 5494 5496 5497 5499 5502 5504 5505 5506 5507 5507 5508 5508 5508 5507 5508 5508 5508 5509 5508 5508 5508 5507 5507
5477 5473 5464 5464 5459 5455 5459 5479 5494 5487 5485 5482 5479 5478 5477 5475 5474 5474 5475 5476 5477 5478 5480 5481 5482 5483 5484 5485 5486 5489 5491 5493 5493 5495 5495 5496 5496 5497 5497 5496 5497 5497 5498 5497 5498 5498 5498 5497 5497